Voltar ao catálogo

COSMOS 342

AtivoMilitarLEO
NORAD 4389·PAYLOAD·🇷🇺 Russia

Lançado Apr 25, 1970 de Plesetsk Cosmodrome

Loading…

Próximas Passagens (próximas 24 horas)

TLE

AtualizadoSource: Space-Track

Época: Sep 14, 2026, 10:00 UTC

1 04389U 70036G   26257.41681532 -.00000025  00000-0 -46428-4 0  9999
2 04389  74.0254 248.1469 0100526 114.0936  51.0198 12.68341514610433

Acompanhe COSMOS 342 em tempo real com AllMySat

Download on the App Store